Weather History for Pocatello, ID

Change the Weather History Date:

Monday, September 10, 2012

  Actual Average Record
Temperature  
Mean Temperature 69 °F 61 °F  
Max Temperature 82 °F 79 °F 92 °F (1959)
Min Temperature 55 °F 44 °F 31 °F (1970)
Degree Days  
Heating Degree Days 0 5  
Month to date heating degree days 25 35  
Since 1 July heating degree days 27 81  
Cooling Degree Days 4 1  
Month to date cooling degree days 6 15  
Year to date cooling degree days 558 385  
Growing Degree Days 18 (Base 50)    
Moisture  
Dew Point 32 °F    
Average Humidity 36    
Maximum Humidity 61    
Minimum Humidity 11    
Precipitation  
Precipitation T in 0.03 in 0.35 in (1998)
Month to date precipitation 0.08 0.26  
Year to date precipitation 6.52 8.33  
Snow  
Snow 0.00 in - - ()
Month to date snowfall 0.0  
Since 1 July snowfall 0.0  
Since 1 September snowfall 0.0  
Snow Depth 0.00 in    
Sea Level Pressure  
Sea Level Pressure 29.84 in    
Wind  
Wind Speed 14 mph (SW)    
Max Wind Speed 24 mph    
Max Gust Speed 30 mph    
Visibility 10 miles    
Events      
T = Trace of Precipitation, MM = Missing Value Source: NWS Daily Summary

Daily Weather History Graph

Daily Weather History Graph

Search for Another Location

Airport:

Trip Planner

Search our weather history database for the weather conditions in past years. The results will help you decide how hot, cold, wet, or windy it might be!

Date:

Astronomy

Sep. 10, 2012 Rise Set
Actual Time 7:05 AM MDT 7:48 PM MDT
Civil Twilight 6:36 AM MDT 8:16 PM MDT
Nautical Twilight 6:02 AM MDT 8:50 PM MDT
Astronomical Twilight 5:27 AM MDT 9:25 PM MDT
Moon 1:23 AM MDT (9/10) 4:26 PM MDT (9/10)
Length of Visible Light 13h 40m
Length of Day
12h 42m
Waning Crescent, 29% of the Moon is Illuminated
Sep 10
Waning Crescent
Sep 15
New
Sep 22
First Quarter
Sep 29
Full
Oct 8
Last Quarter

Hourly Weather History & Observations

Time (MDT) Temp. Dew Point Humidity Pressure Visibility Wind Dir Wind Speed Gust Speed Precip Events Conditions
12:53 AM 78.1 °F 37.0 °F 23% 29.75 in 10.0 mi South 15.0 mph - N/A   Clear
1:53 AM 75.0 °F 39.0 °F 27% 29.76 in 10.0 mi South 11.5 mph - N/A   Clear
2:53 AM 73.9 °F 39.9 °F 29% 29.76 in 10.0 mi SW 9.2 mph - N/A   Clear
3:53 AM 64.9 °F 41.0 °F 42% 29.79 in 10.0 mi NW 10.4 mph - N/A   Clear
4:53 AM 55.0 °F 42.1 °F 62% 29.81 in 10.0 mi Calm Calm - N/A   Clear
5:53 AM 59.0 °F 41.0 °F 51% 29.80 in 10.0 mi Calm Calm - N/A   Clear
6:53 AM 61.0 °F 43.0 °F 52% 29.82 in 10.0 mi SSW 6.9 mph - N/A   Scattered Clouds
7:53 AM 69.1 °F 45.0 °F 42% 29.84 in 10.0 mi SSW 13.8 mph - 0.00 in   Scattered Clouds
8:53 AM 64.0 °F 43.0 °F 46% 29.88 in 10.0 mi SW 12.7 mph - N/A   Scattered Clouds
9:53 AM 69.1 °F 41.0 °F 36% 29.89 in 10.0 mi SW 19.6 mph 24.2 mph N/A   Scattered Clouds
10:53 AM 73.0 °F 35.1 °F 25% 29.89 in 10.0 mi SW 20.7 mph - N/A   Scattered Clouds
11:53 AM 77.0 °F 30.9 °F 19% 29.88 in 10.0 mi WSW 21.9 mph 28.8 mph N/A   Partly Cloudy
12:53 PM 78.8 °F 28.4 °F 16% 30.04 in 10.0 mi WSW 19.6 mph 27.6 mph N/A   Partly Cloudy
1:53 PM 79.0 °F 28.0 °F 15% 29.86 in 10.0 mi SW 15.0 mph 27.6 mph N/A   Partly Cloudy
2:53 PM 80.1 °F 24.1 °F 13% 29.85 in 10.0 mi West 18.4 mph 26.5 mph N/A   Partly Cloudy
3:53 PM 80.1 °F 25.0 °F 13% 29.84 in 10.0 mi West 13.8 mph 25.3 mph N/A   Partly Cloudy
4:53 PM 80.1 °F 21.9 °F 12% 29.85 in 10.0 mi West 17.3 mph 27.6 mph N/A   Partly Cloudy
5:53 PM 79.0 °F 24.1 °F 13% 29.83 in 10.0 mi West 23.0 mph - N/A   Partly Cloudy
6:53 PM 75.0 °F 21.0 °F 13% 29.83 in 10.0 mi WSW 18.4 mph - N/A   Partly Cloudy
7:53 PM 69.1 °F 24.1 °F 18% 29.83 in 10.0 mi WSW 15.0 mph - N/A   Partly Cloudy
8:53 PM 66.0 °F 24.1 °F 20% 29.87 in 10.0 mi South 13.8 mph 19.6 mph N/A   Clear
9:53 PM 66.0 °F 23.0 °F 20% 29.87 in 10.0 mi SSW 12.7 mph - N/A   Clear
10:53 PM 66.9 °F 21.9 °F 18% 29.87 in 10.0 mi SW 11.5 mph - N/A   Clear
11:53 PM 64.0 °F 21.9 °F 20% 29.87 in 10.0 mi SW 10.4 mph - N/A   Clear